Regional Weather Roundup
Issued by NWS Mt. Holly, NJ

Home | Current Version | Previous Version | Text Only | Print | Product List | Glossary On
Versions: 1 2 3 4 5 6 7 8 9 10 11 12 13 14 15 16 17 18 19 20 21 22 23 24 25 26 27 28 29 30 31 32 33 34 35 36 37 38 39 40 41 42 43 44 45 46 47 48 49 50
000
ASUS41 KPHI 271712
RWRPHI

REGIONAL WEATHER ROUNDUP
NATIONAL WEATHER SERVICE MOUNT HOLLY NJ
100 PM EDT FRI MAR 27 2015

NOTE:  "FAIR" INDICATES FEW OR NO CLOUDS BELOW 12,000 FEET WITH NO
SIGNIFICANT WEATHER AND/OR OBSTRUCTIONS TO VISIBILITY.

 * = STATION DOES NOT REPORT PRECIPITATION (E.G. RAIN, SNOW, ETC.)
        OR FOG.

NJZ015>026-271800-
SOUTHERN NEW JERSEY

CITY           SKY/WX    TMP DP  RH WIND       PRES   REMARKS
POMONA         CLOUDY    42  36  79 N10       29.75F
RIO GRANDE*    CLOUDY    41  34  75 N8        29.77F
MILLVILLE      LGT RAIN  40  37  89 NW7       29.79R FOG
WRIGHTSTOWN    PTSUNNY   42  36  78 NW9       29.73S
MOUNT HOLLY    CLOUDY    43  34  70 NW10      29.77R
TRENTON        CLOUDY    44  33  65 NW10      29.76R

$$
NJZ001>014-271800-
NORTHERN NEW JERSEY

CITY           SKY/WX    TMP DP  RH WIND       PRES   REMARKS
SUSSEX         CLOUDY    44  31  60 NW8       29.75S
ANDOVER*         N/A     44  29  55 VRB5      29.75S
MORRISTOWN     CLOUDY    45  34  65 N8        29.75F
NEWARK         CLOUDY    45  34  65 NW10G18   29.74F
TETERBORO      CLOUDY    45  34  65 N6        29.73F
CALDWELL       CLOUDY    45  32  60 VRB5      29.74F
SOMERVILLE     CLOUDY    46  30  53 N14       29.74S
ALLAIRE*       CLOUDY    43  34  70 NW10      29.74S
TOMS RIVER*    CLOUDY    43  37  81 NW9       29.75S

$$
PAZ043-044-047-054-055-060>062-066>071-271800-
EASTERN PENNSYLVANIA

CITY           SKY/WX    TMP DP  RH WIND       PRES   REMARKS
PHILADELPHIA   CLOUDY    45  32  60 N14       29.78R
NORTH PHILA    CLOUDY    46  31  55 N13       29.78R
BLUE BELL      CLOUDY    45  32  61 NW8       29.77S
DOYLESTOWN     CLOUDY    43  33  68 NW7       29.76R
QUAKERTOWN*    CLOUDY    41  30  65 N10       29.77F
POTTSTOWN      CLOUDY    42  28  57 N10       29.79S
LANCASTER      CLOUDY    42  28  57 N7        29.78F
COATESVILLE    CLOUDY    41  27  56 N13       29.79R
READING        CLOUDY    43  27  53 NW13      29.78F
ALLENTOWN      CLOUDY    43  28  55 NW9       29.77S
MOUNT POCONO   CLOUDY    34  26  72 N14G20    29.69F WCI  25
HAZLETON       CLOUDY    37  25  60 NW7       29.77S WCI  32
WILKES BARRE   CLOUDY    39  25  57 N14G20    29.76F WCI  31

$$
DEZALL-MDZ008-012-015-019-020-271800-
DELAWARE AND EASTERN MARYLAND

CITY           SKY/WX    TMP DP  RH WIND       PRES   REMARKS
WILMINGTON     CLOUDY    45  30  55 N10       29.80R
DOVER          LGT RAIN  39  39 100 N7        29.79S WCI  34
GEORGETOWN     LGT RAIN  40  37  89 NW9       29.78F FOG     WCI  34
EASTON         LGT RAIN  41  39  93 N10       29.83S
ABERDEEN       CLOUDY    45  34  65 N7        29.80S
PATUXENT       LGT RAIN  40  36  86 N16G23    29.81F FOG     WCI  31
OCEAN CITY     CLOUDY    42  34  73 N14G25    29.76F
WALLOPS ISLAND CLOUDY    43  34  70 N15G23    29.77R
CAMBRIDGE      CLOUDY    41  36  81 N10G16    29.79S
SALISBURY      LGT RAIN  41  38  89 N10       29.78R FOG

$$
PAZ001-021-NYZ056-072-MDZ011-DCZ001-271800-
OTHER NEARBY LOCATIONS

CITY           SKY/WX    TMP DP  RH WIND       PRES   REMARKS
HARRISBURG     CLOUDY    44  26  49 NW13      29.80R
STATE COLLEGE  CLOUDY    37  21  52 NW8       29.80F WCI  31
WILLIAMSPORT   CLOUDY    42  20  41 NW7G16    29.80F
BINGHAMTON     PTSUNNY   34  25  69 W10       29.75R WCI  26
NEW YORK CITY  CLOUDY    44  35  70 VRB6      29.76S
BALTIMORE      CLOUDY    45  33  63 NW7       29.78F
WASHINGTON DC  CLOUDY    47  33  58 N15       29.81F

$$



USA.gov is the U.S. government's official web portal to all federal, state and local government web resources and services.